Terminal Aerodrome Forecast
Issued by NWS

Home | Current Version | Previous Version | Text Only | Print | Product List | Glossary Off
Versions: 1 2 3 4 5 6 7 8 9 10 11 12 13 14 15 16 17 18 19 20 21 22 23 24

000
FTUS43 KABR 160705 AAA
TAFMBG
TAF AMD
KMBG 160705Z 1607/1706 VRB03KT P6SM BKN015 BKN025
     FM160900 34007KT P6SM OVC015
     FM161100 34008KT P6SM OVC008
     FM161500 34012KT P6SM BKN015
     FM161700 35013KT P6SM BKN060=

USA.gov is the U.S. government's official web portal to all federal, state and local government web resources and services.